When you browse on this site, cookies collect data to enhance your experience and personalize the content and advertising you see.
Visit our Privacy Policy to learn more. By continuing to use the site, you agree to this use of cookies and data.
  • In Portugal
  • List of Countries
  • For 7 days
  • Water Temperature
  • Satellite Maps
  • Weather Map
  • Weather Widgets
  • user-avatar
    Login

    Hourly Weather Tafilah

    Today, 23 March, Saturday

    Time Temperature Precipitation Wind Pressure Humidity
    00:00 +14°C° 0 mm 1 mps 698 mmHg 50%
    01:00 +14°C° 0 mm 1 mps 698 mmHg 54%
    02:00 +13°C° 0 mm 1 mps 698 mmHg 58%
    03:00 +13°C° 0 mm 1 mps 698 mmHg 60%
    04:00 +13°C° 0 mm 1 mps 697 mmHg 62%
    05:00 +12°C° 0 mm 1 mps 697 mmHg 64%
    06:00 +13°C° 0 mm 1 mps 697 mmHg 58%
    07:00 +14°C° 0 mm 1 mps 697 mmHg 52%
    08:00 +15°C° 0 mm 1 mps 698 mmHg 45%
    09:00 +16°C° 0 mm 1 mps 698 mmHg 39%
    10:00 +19°C° 0 mm 1 mps 698 mmHg 32%
    11:00 +19°C° 0 mm 2 mps 697 mmHg 25%
    12:00 +19°C° 0 mm 2 mps 697 mmHg 22%
    13:00 +20°C° 0 mm 3 mps 697 mmHg 19%
    14:00 +20°C° 0 mm 3 mps 696 mmHg 16%
    15:00 +20°C° 0 mm 3 mps 696 mmHg 18%
    16:00 +19°C° 0 mm 3 mps 696 mmHg 21%
    17:00 +19°C° 0 mm 3 mps 696 mmHg 23%
    18:00 +18°C° 0.1 mm 3 mps 696 mmHg 27%
    19:00 +17°C° 0.1 mm 2 mps 696 mmHg 32%
    20:00 +17°C° 0.1 mm 2 mps 696 mmHg 37%
    21:00 +16°C° 0.1 mm 2 mps 695 mmHg 39%
    22:00 +16°C° 0.1 mm 1 mps 695 mmHg 42%
    23:00 +15°C° 0.1 mm 1 mps 694 mmHg 45%

    Tomorrow, 24 March, Sunday

    Time Temperature Precipitation Wind Pressure Humidity
    00:00 +15°C° 0 mm 1 mps 694 mmHg 46%
    01:00 +15°C° 0 mm 1 mps 693 mmHg 47%
    02:00 +15°C° 0 mm 1 mps 693 mmHg 48%
    03:00 +14°C° 0 mm 1 mps 692 mmHg 50%
    04:00 +14°C° 0 mm 1 mps 692 mmHg 52%
    05:00 +13°C° 0 mm 1 mps 691 mmHg 54%
    06:00 +14°C° 0 mm 1 mps 692 mmHg 51%
    07:00 +15°C° 0 mm 1 mps 692 mmHg 48%
    08:00 +16°C° 0 mm 1 mps 692 mmHg 45%
    09:00 +17°C° 0 mm 2 mps 692 mmHg 40%
    10:00 +17°C° 0 mm 3 mps 692 mmHg 35%
    11:00 +18°C° 0 mm 3 mps 692 mmHg 30%
    12:00 +19°C° 0 mm 4 mps 691 mmHg 27%
    13:00 +19°C° 0 mm 4 mps 691 mmHg 25%
    14:00 +20°C° 0 mm 5 mps 690 mmHg 22%
    15:00 +19°C° 0 mm 5 mps 690 mmHg 23%
    16:00 +17°C° 0 mm 5 mps 690 mmHg 25%
    17:00 +16°C° 0 mm 6 mps 690 mmHg 26%
    18:00 +15°C° 0 mm 5 mps 690 mmHg 29%
    19:00 +14°C° 0 mm 5 mps 691 mmHg 33%
    20:00 +13°C° 0 mm 4 mps 691 mmHg 36%
    21:00 +13°C° 0 mm 4 mps 691 mmHg 38%
    22:00 +12°C° 0 mm 4 mps 691 mmHg 41%
    23:00 +11°C° 0 mm 4 mps 690 mmHg 43%

    Day after tomorrow, 25 March, Monday

    Time Temperature Precipitation Wind Pressure Humidity
    00:00 +11°C° 0 mm 4 mps 690 mmHg 45%
    01:00 +10°C° 0 mm 4 mps 690 mmHg 48%
    02:00 +10°C° 0 mm 4 mps 689 mmHg 50%
    03:00 +10°C° 0 mm 4 mps 689 mmHg 58%
    04:00 +8°C° 0 mm 4 mps 689 mmHg 65%
    05:00 +8°C° 0 mm 5 mps 689 mmHg 73%
    06:00 +8°C° 0.1 mm 5 mps 689 mmHg 70%
    07:00 +8°C° 0.1 mm 5 mps 690 mmHg 66%
    08:00 +8°C° 0.1 mm 5 mps 690 mmHg 63%
    09:00 +9°C° 0 mm 6 mps 690 mmHg 58%
    10:00 +9°C° 0 mm 6 mps 691 mmHg 53%
    11:00 +10°C° 0 mm 6 mps 691 mmHg 47%
    12:00 +10°C° 0.1 mm 6 mps 691 mmHg 48%
    13:00 +9°C° 0.1 mm 6 mps 691 mmHg 49%
    14:00 +9°C° 0.1 mm 5 mps 690 mmHg 49%
    15:00 +9°C° 0 mm 5 mps 691 mmHg 49%
    16:00 +9°C° 0 mm 5 mps 691 mmHg 48%
    17:00 +8°C° 0 mm 5 mps 692 mmHg 47%
    18:00 +8°C° 0 mm 5 mps 692 mmHg 51%
    19:00 +7°C° 0 mm 4 mps 693 mmHg 55%
    20:00 +7°C° 0 mm 4 mps 694 mmHg 59%
    21:00 +7°C° 0 mm 4 mps 694 mmHg 60%
    22:00 +6°C° 0 mm 4 mps 694 mmHg 61%
    23:00 +6°C° 0 mm 4 mps 694 mmHg 62%

    26 March, Tuesday

    Time Temperature Precipitation Wind Pressure Humidity
    00:00 +7°C° 0 mm 3 mps 694 mmHg 62%
    01:00 +5°C° 0 mm 3 mps 694 mmHg 62%
    02:00 +5°C° 0 mm 3 mps 694 mmHg 63%
    03:00 +5°C° 0 mm 3 mps 694 mmHg 63%
    04:00 +5°C° 0 mm 3 mps 695 mmHg 63%
    05:00 +5°C° 0 mm 3 mps 695 mmHg 63%
    06:00 +5°C° 0 mm 3 mps 695 mmHg 58%
    07:00 +7°C° 0 mm 3 mps 696 mmHg 54%
    08:00 +7°C° 0 mm 4 mps 697 mmHg 49%
    09:00 +8°C° 0 mm 4 mps 697 mmHg 45%
    10:00 +11°C° 0 mm 4 mps 697 mmHg 41%
    11:00 +12°C° 0 mm 4 mps 697 mmHg 38%
    12:00 +13°C° 0 mm 4 mps 697 mmHg 35%
    13:00 +14°C° 0 mm 4 mps 696 mmHg 33%
    14:00 +14°C° 0 mm 4 mps 696 mmHg 30%
    15:00 +14°C° 0 mm 4 mps 696 mmHg 30%
    16:00 +14°C° 0 mm 4 mps 697 mmHg 30%
    17:00 +14°C° 0 mm 3 mps 697 mmHg 30%
    18:00 +14°C° 0 mm 3 mps 697 mmHg 32%
    19:00 +14°C° 0 mm 2 mps 698 mmHg 34%
    20:00 +13°C° 0 mm 2 mps 698 mmHg 37%
    21:00 +13°C° 0 mm 1 mps 698 mmHg 37%
    22:00 +12°C° 0 mm 1 mps 698 mmHg 38%
    23:00 +12°C° 0 mm 1 mps 698 mmHg 39%

    27 March, Wednesday

    Time Temperature Precipitation Wind Pressure Humidity
    00:00 +11°C° 0 mm 1 mps 698 mmHg 37%
    01:00 +10°C° 0 mm 2 mps 698 mmHg 35%
    02:00 +10°C° 0 mm 2 mps 698 mmHg 32%
    03:00 +9°C° 0 mm 2 mps 698 mmHg 36%
    04:00 +9°C° 0 mm 2 mps 698 mmHg 39%
    05:00 +9°C° 0 mm 2 mps 699 mmHg 42%
    06:00 +10°C° 0 mm 2 mps 699 mmHg 41%
    07:00 +11°C° 0 mm 3 mps 700 mmHg 40%
    08:00 +12°C° 0 mm 3 mps 700 mmHg 40%
    09:00 +13°C° 0 mm 3 mps 700 mmHg 38%
    10:00 +14°C° 0 mm 4 mps 700 mmHg 36%
    11:00 +15°C° 0 mm 4 mps 700 mmHg 35%
    12:00 +17°C° 0 mm 4 mps 700 mmHg 31%
    13:00 +18°C° 0 mm 4 mps 699 mmHg 28%
    14:00 +19°C° 0 mm 4 mps 699 mmHg 24%
    15:00 +19°C° 0 mm 4 mps 699 mmHg 24%
    16:00 +18°C° 0 mm 4 mps 699 mmHg 23%
    17:00 +18°C° 0 mm 4 mps 699 mmHg 23%
    18:00 +17°C° 0 mm 3 mps 699 mmHg 26%
    19:00 +16°C° 0 mm 2 mps 699 mmHg 30%
    20:00 +15°C° 0 mm 2 mps 699 mmHg 34%
    21:00 +15°C° 0 mm 1 mps 699 mmHg 35%
    22:00 +14°C° 0 mm 1 mps 699 mmHg 36%
    23:00 +14°C° 0 mm 1 mps 699 mmHg 36%

    28 March, Thursday

    Time Temperature Precipitation Wind Pressure Humidity
    00:00 +13°C° 0 mm 1 mps 698 mmHg 36%
    01:00 +13°C° 0 mm 1 mps 698 mmHg 36%
    02:00 +12°C° 0 mm 1 mps 698 mmHg 36%
    03:00 +12°C° 0 mm 1 mps 697 mmHg 36%
    04:00 +12°C° 0 mm 1 mps 697 mmHg 37%
    05:00 +12°C° 0 mm 1 mps 697 mmHg 37%
    06:00 +13°C° 0 mm 2 mps 698 mmHg 34%
    07:00 +15°C° 0 mm 2 mps 698 mmHg 31%
    08:00 +16°C° 0 mm 2 mps 698 mmHg 28%
    09:00 +18°C° 0 mm 4 mps 698 mmHg 25%
    10:00 +19°C° 0 mm 6 mps 698 mmHg 22%
    11:00 +20°C° 0 mm 8 mps 698 mmHg 19%
    12:00 +20°C° 0 mm 8 mps 697 mmHg 21%
    13:00 +20°C° 0 mm 8 mps 697 mmHg 23%
    14:00 +20°C° 0 mm 7 mps 696 mmHg 26%
    15:00 +18°C° 0 mm 7 mps 696 mmHg 29%
    16:00 +17°C° 0 mm 7 mps 696 mmHg 32%
    17:00 +16°C° 0 mm 7 mps 696 mmHg 35%
    18:00 +15°C° 0 mm 6 mps 696 mmHg 42%
    19:00 +13°C° 0 mm 5 mps 696 mmHg 49%
    20:00 +12°C° 0 mm 4 mps 697 mmHg 56%
    21:00 +12°C° 0 mm 4 mps 697 mmHg 58%
    22:00 +11°C° 0 mm 3 mps 697 mmHg 60%
    23:00 +10°C° 0 mm 3 mps 697 mmHg 62%
    Show more